Flag for United Arab Emirates Weather past 2 weeks in Sharjah, Sharjah, United Arab Emirates

Now
90 °F

Clear.


Feels Like: 91 °F
Forecast: 80 / 96 °F
Wind: 2 mph from North

Location: Sharjah International Airport


UV Index: 7 (High)

Visibility: 10 mi


Pressure: 29.77 "Hg

Humidity: 43%

Dew point: 64 °F

Location of SharjahLocation

Historic Weather in Sharjah

°F

Sharjah temperature yesterday

Maximum temperature yesterday: 99 °F (at 1:00 PM)
Minimum temperature yesterday: 79 °F (at 6:00 AM)
Average temperature yesterday: 86 °F

Past Weeks' High & Low Weather Summary

 TemperatureHumidityPressure
High104 °F (Apr 16, 2:00 PM)79% (Apr 24, 4:00 AM)29.95 "Hg (Apr 24, 4:00 AM)
Low66 °F (Apr 10, 3:00 AM)5% (Apr 11, 12:00 PM)29.68 "Hg (Apr 17, 4:00 PM)
Average86 °F44%29.83 "Hg
* Reported Apr 9 7:00 PM — Apr 24 7:00 PM, Sharjah, Weather by CustomWeather, © 2014

Note: Actual official high and low records may vary slightly from our data, if they occured in-between our weather recording intervals... More about our weather records

Advertising

Historic Weather Conditions — Data for Previous 24 hours

 ConditionsComfort  
Time TempWeatherWind HumidityBarometerVisibility
7:00 PM
Apr 24
91 °FPassing clouds.6 mph38%29.77 "HgN/A
6:00 PM93 °FSunny.9 mph36%29.77 "Hg10 mi
5:00 PM99 °FSunny.16 mph22%29.77 "Hg10 mi
4:00 PM100 °FSunny.16 mph18%29.77 "Hg10 mi
3:00 PM104 °FSunny.17 mph15%29.77 "Hg10 mi
2:00 PM102 °FPassing clouds.15 mph26%29.77 "HgN/A
1:00 PM100 °FSunny.14 mph31%29.80 "Hg10 mi
12:00 PM102 °FPassing clouds.9 mph20%29.83 "HgN/A
11:00 AM100 °FPassing clouds.8 mph22%29.86 "HgN/A
10:00 AM97 °FPassing clouds.7 mph28%29.86 "HgN/A
9:00 AM90 °FPassing clouds.6 mph46%29.86 "HgN/A
8:00 AM82 °FSunny.5 mph66%29.86 "Hg10 mi
7:00 AM79 °FSunny.3 mph70%29.86 "Hg10 mi
6:00 AM77 °FSunny.5 mph74%29.83 "Hg10 mi
5:00 AM77 °FClear.3 mph74%29.80 "Hg10 mi
4:00 AM77 °FClear.3 mph79%29.80 "Hg10 mi
3:00 AM81 °FClear.3 mph74%29.80 "Hg10 mi
2:00 AM79 °FClear.2 mph74%29.83 "Hg10 mi
1:00 AM81 °FClear.3 mph70%29.83 "Hg10 mi
12:00 AM84 °FClear.1 mph62%29.83 "Hg10 mi
11:00 PM
Apr 23
82 °FClear.1 mph70%29.86 "Hg10 mi
10:00 PM82 °FClear.No wind70%29.86 "Hg10 mi
9:00 PM86 °FClear.3 mph62%29.86 "Hg10 mi
8:00 PM86 °FClear.5 mph62%29.86 "Hg10 mi
Weather by CustomWeather, © 2014

See weather overview